Flag for Sweden Weather past 2 weeks in Norrköping, Sweden

Now
34 °F

Dense fog.


Feels Like: 34 °F
Forecast: 34 / 61 °F
Wind: No wind

Location: Norrkoping Airport


UV Index: 0 (Low)

Visibility: 0 mi


Pressure: 30.24 "Hg

Humidity: 93%

Dew point: 32 °F

Location of NorrköpingLocation

Historic Weather in Norrköping

°F

Norrköping temperature yesterday

Maximum temperature yesterday: 52 °F (at 4:50 PM)
Minimum temperature yesterday: 36 °F (at 10:20 PM)
Average temperature yesterday: 46 °F

Past Weeks' High & Low Weather Summary

 TemperatureHumidityPressure
High57 °F (Apr 17, 1:20 PM)100% (Apr 7, 12:50 AM)30.36 "Hg (Apr 7, 12:50 AM)
Low19 °F (Apr 5, 5:50 AM)26% (Apr 14, 2:50 PM)29.39 "Hg (Apr 14, 12:20 AM)
Average44 °F72%29.87 "Hg
* Reported Apr 4 2:20 AM — Apr 19 2:20 AM, Norrköping, Weather by CustomWeather, © 2014

Note: Actual official high and low records may vary slightly from our data, if they occured in-between our weather recording intervals... More about our weather records

Advertising

Historic Weather Conditions — Data for Previous 24 hours

 ConditionsComfort  
Time TempWeatherWind HumidityBarometerVisibility
2:20 AM
Apr 19
32 °FLight fog.No wind100%30.24 "Hg0 mi
1:50 AM32 °FLight fog.No wind100%30.21 "Hg0 mi
1:20 AM34 °FFog.No wind100%30.21 "Hg0 mi
12:50 AM34 °FChilly.No wind100%30.21 "HgN/A
12:20 AM36 °FFog.No wind93%30.21 "Hg4 mi
11:50 PM
Apr 18
37 °FFog.No wind93%30.18 "Hg1 mi
11:20 PM36 °FChilly.No wind100%30.18 "HgN/A
10:50 PM37 °FChilly.No wind87%30.18 "HgN/A
10:20 PM36 °FChilly.2 mph93%30.15 "HgN/A
9:50 PM39 °FChilly.3 mph93%30.15 "HgN/A
9:20 PM41 °FQuite cool.3 mph87%30.12 "HgN/A
8:50 PM45 °FQuite cool.3 mph81%30.09 "HgN/A
8:20 PM45 °FQuite cool.5 mph81%30.09 "HgN/A
7:50 PM46 °FSunny.7 mph76%30.07 "Hg10 mi
7:20 PM48 °FSunny.8 mph76%30.07 "Hg10 mi
6:50 PM50 °FSunny.7 mph71%30.04 "Hg10 mi
6:20 PM50 °FPassing clouds.7 mph71%30.04 "HgN/A
5:50 PM52 °FCool.8 mph67%30.01 "HgN/A
5:20 PM52 °FPassing clouds.12 mph67%30.01 "HgN/A
4:50 PM52 °FPassing clouds.8 mph67%29.98 "HgN/A
4:20 PM50 °FPartly sunny.9 mph71%29.98 "HgN/A
3:20 PM48 °FBroken clouds.9 mph82%29.95 "HgN/A
2:50 PM48 °FBroken clouds.10 mph87%29.92 "HgN/A
2:20 PM48 °FMore clouds than sun.10 mph82%29.89 "HgN/A
1:50 PM50 °FMore clouds than sun.8 mph76%29.89 "HgN/A
1:20 PM48 °FDrizzle. Overcast.8 mph82%29.86 "HgN/A
12:50 PM48 °FMore clouds than sun.8 mph82%29.83 "HgN/A
12:20 PM50 °FBroken clouds.7 mph71%29.83 "HgN/A
11:50 AM50 °FBroken clouds.7 mph71%29.80 "HgN/A
11:20 AM48 °FOvercast.6 mph82%29.80 "HgN/A
10:50 AM48 °FPartly sunny.5 mph82%29.77 "HgN/A
10:20 AM46 °FPartly sunny.5 mph87%29.74 "HgN/A
9:50 AM46 °FPartly sunny.5 mph87%29.74 "HgN/A
9:20 AM46 °FPartly sunny.3 mph87%29.71 "HgN/A
8:50 AM46 °FPartly sunny.2 mph87%29.68 "HgN/A
8:20 AM46 °FBroken clouds.1 mph87%29.68 "HgN/A
7:50 AM45 °FPartly sunny.2 mph93%29.65 "HgN/A
7:20 AM45 °FPartly sunny.1 mph87%29.65 "HgN/A
6:50 AM45 °FPartly sunny.6 mph87%29.62 "HgN/A
6:20 AM43 °FPassing clouds.5 mph93%29.62 "HgN/A
5:58 AM43 °FPassing clouds.6 mph93%29.59 "HgN/A
5:20 AM43 °FOvercast.7 mph93%29.59 "HgN/A
4:50 AM45 °FOvercast.6 mph87%29.59 "HgN/A
4:20 AM45 °FPartly cloudy.6 mph87%29.56 "HgN/A
3:50 AM45 °FOvercast.9 mph87%29.56 "HgN/A
3:20 AM45 °FPassing clouds.10 mph87%29.56 "HgN/A
Weather by CustomWeather, © 2014

See weather overview